Ansonville, NC

9:45 PM EDT on September 26, 2016 (GMT -0400)
Anson County

Weather History for KAFP - February, 2013

Change the Weather History Date:

Friday, February 8, 2013

  Actual Average (KCLT) Record (KCLT)
Temperature  
Mean Temperature 50 °F 42 °F  
Max Temperature 61 °F 54 °F 74 °F (2009)
Min Temperature 40 °F 31 °F 1 °F (1895)
Degree Days  
Heating Degree Days 14 23  
Month to date heating degree days 185  
Since 1 July heating degree days 2292  
Cooling Degree Days 0 0  
Month to date cooling degree days 0  
Year to date cooling degree days 0  
Moisture  
Dew Point 39 °F    
Average Humidity 73    
Maximum Humidity 95    
Minimum Humidity 46    
Precipitation  
Precipitation 0.08 in 0.10 in 1.12 in (1896)
Month to date precipitation 0.87  
Year to date precipitation 4.28  
Snow  
Snow 0.00 in 0.10 in 0.20 in (1964)
Month to date snowfall 0.4  
Since 1 July snowfall 2.9  
Snow Depth -    
Sea Level Pressure  
Sea Level Pressure 29.92 in    
Wind  
Wind Speed 8 mph (NW)    
Max Wind Speed 15 mph    
Max Gust Speed 21 mph    
Visibility 10 miles    
Events Rain    
T = Trace of Precipitation, MM = Missing Value Source: NWS Daily Summary

Daily Weather History Graph

Daily Weather History Graph

Search for Another Location

Airport or City:

Trip Planner

Search our weather history database for the weather conditions in past years. The results will help you decide how hot, cold, wet, or windy it might be!

Date:

Astronomy

Feb. 08, 2013 Rise Set
Actual Time 7:13 AM EST 5:56 PM EST
Civil Twilight 6:46 AM EST 6:22 PM EST
Nautical Twilight 6:16 AM EST 6:52 PM EST
Astronomical Twilight 5:47 AM EST 7:22 PM EST
Moon 5:38 AM EST (2/8) 4:29 PM EST (2/8)
Length of Visible Light 11h 35m
Length of Day
10h 43m
Waning Crescent, 3% of the Moon is Illuminated
Feb 8
Waning Crescent
Feb 10
New
Feb 17
First Quarter
Feb 25
Full
Mar 4
Last Quarter

Hourly Weather History & Observations

Time (EST) Temp. Windchill Dew Point Humidity Pressure Visibility Wind Dir Wind Speed Gust Speed Precip Events Conditions
12:15 AM 44.2 °F 38.8 °F 42.8 °F 95% 29.92 in 4.0 mi North 10.4 mph - 0.04 in Rain Rain
12:35 AM 44.2 °F 38.8 °F 42.8 °F 95% 29.91 in 5.0 mi North 10.4 mph 17.3 mph 0.07 in Rain Rain
12:55 AM 44.6 °F 38.4 °F 43.0 °F 94% 29.89 in 7.0 mi North 12.7 mph 18.4 mph 0.08 in Rain Light Rain
1:15 AM 44.4 °F 39.0 °F 43.0 °F 95% 29.90 in 10.0 mi North 10.4 mph - N/A Rain Rain
1:55 AM 44.2 °F 38.8 °F 42.8 °F 95% 29.88 in 10.0 mi North 10.4 mph - N/A   Light Drizzle
2:15 AM 44.1 °F 39.0 °F 42.3 °F 93% 29.88 in 10.0 mi NNW 9.2 mph - N/A   Overcast
2:35 AM 43.9 °F 38.3 °F 42.3 °F 94% 29.86 in 10.0 mi North 10.4 mph - N/A   Overcast
2:55 AM 44.6 °F 40.2 °F 42.8 °F 93% 29.85 in 10.0 mi North 8.1 mph 17.3 mph N/A   Light Drizzle
3:15 AM 44.8 °F 39.9 °F 42.8 °F 93% 29.85 in 10.0 mi North 9.2 mph 16.1 mph N/A   Overcast
3:35 AM 45.1 °F 40.3 °F 43.0 °F 92% 29.85 in 10.0 mi NNW 9.2 mph - N/A   Overcast
3:55 AM 45.0 °F 40.1 °F 42.8 °F 92% 29.85 in 10.0 mi NNW 9.2 mph - N/A   Overcast
4:35 AM 43.7 °F 37.3 °F 41.5 °F 92% 29.85 in 10.0 mi NNW 12.7 mph - N/A   Overcast
4:55 AM 43.2 °F 38.4 °F 41.0 °F 92% 29.85 in 10.0 mi NNW 8.1 mph - N/A   Overcast
5:15 AM 43.2 °F 39.0 °F 41.0 °F 92% 29.86 in 10.0 mi NW 6.9 mph - N/A   Overcast
5:35 AM 42.8 °F 37.5 °F 40.3 °F 91% 29.87 in 10.0 mi NW 9.2 mph - N/A   Overcast
5:55 AM 42.3 °F 35.5 °F 39.7 °F 91% 29.88 in 10.0 mi NNW 12.7 mph 18.4 mph N/A   Overcast
6:15 AM 41.9 °F 35.9 °F 39.4 °F 91% 29.88 in 10.0 mi NNW 10.4 mph - N/A   Overcast
6:35 AM 41.5 °F 35.0 °F 38.7 °F 89% 29.88 in 10.0 mi NW 11.5 mph - N/A   Overcast
6:55 AM 41.2 °F 35.5 °F 38.5 °F 90% 29.88 in 10.0 mi NNW 9.2 mph - N/A   Overcast
7:15 AM 41.0 °F 35.8 °F 37.9 °F 89% 29.89 in 10.0 mi NW 8.1 mph - N/A   Overcast
7:35 AM 40.6 °F 33.8 °F 37.8 °F 89% 29.89 in 10.0 mi NNW 11.5 mph 16.1 mph N/A   Overcast
7:55 AM 40.6 °F 35.4 °F 37.8 °F 89% 29.90 in 10.0 mi NW 8.1 mph - N/A   Overcast
8:15 AM 41.0 °F 35.8 °F 38.1 °F 89% 29.90 in 10.0 mi NW 8.1 mph - N/A   Overcast
8:35 AM 41.0 °F 35.2 °F 37.8 °F 88% 29.91 in 10.0 mi NW 9.2 mph - N/A   Overcast
8:55 AM 41.4 °F 36.2 °F 38.1 °F 88% 29.92 in 10.0 mi NW 8.1 mph - N/A   Overcast
9:15 AM 41.5 °F 35.9 °F 38.1 °F 88% 29.92 in 10.0 mi WNW 9.2 mph - N/A   Overcast
9:35 AM 41.7 °F 38.0 °F 37.9 °F 86% 29.93 in 10.0 mi WNW 5.8 mph - N/A   Overcast
9:55 AM 42.1 °F 38.4 °F 38.3 °F 86% 29.94 in 10.0 mi NW 5.8 mph - N/A   Overcast
10:15 AM 42.4 °F 39.6 °F 38.3 °F 85% 29.93 in 10.0 mi West 4.6 mph - N/A   Overcast
10:35 AM 43.2 °F 39.7 °F 38.7 °F 84% 29.95 in 10.0 mi West 5.8 mph - N/A   Overcast
10:55 AM 43.7 °F 39.7 °F 39.2 °F 84% 29.95 in 10.0 mi West 6.9 mph - N/A   Overcast
11:15 AM 44.6 °F 43.1 °F 39.7 °F 83% 29.95 in 10.0 mi WSW 3.5 mph - N/A   Overcast
11:35 AM 45.0 °F - 39.7 °F 82% 29.93 in 10.0 mi Calm Calm - N/A   Overcast
11:55 AM 46.0 °F - 40.3 °F 80% 29.92 in 10.0 mi Calm Calm - N/A   Overcast
12:15 PM 46.6 °F - 40.6 °F 80% 29.92 in 10.0 mi SW 3.5 mph - N/A   Mostly Cloudy
12:35 PM 48.7 °F - 41.9 °F 77% 29.91 in 10.0 mi West 4.6 mph - N/A   Scattered Clouds
12:55 PM 50.7 °F - 42.1 °F 72% 29.90 in 10.0 mi SW 3.5 mph - N/A   Mostly Cloudy
1:15 PM 52.7 °F - 42.3 °F 68% 29.90 in 10.0 mi SW 8.1 mph - N/A   Scattered Clouds
1:35 PM 54.3 °F - 42.8 °F 65% 29.88 in 10.0 mi WNW 5.8 mph - N/A   Scattered Clouds
1:55 PM 56.3 °F - 43.2 °F 61% 29.88 in 10.0 mi WSW 5.8 mph - N/A   Scattered Clouds
2:15 PM 57.4 °F - 44.1 °F 61% 29.86 in 10.0 mi SW 5.8 mph - N/A   Scattered Clouds
2:35 PM 59.5 °F - 43.9 °F 56% 29.85 in 10.0 mi WSW 6.9 mph - N/A   Scattered Clouds
2:55 PM 59.2 °F - 43.9 °F 57% 29.85 in 10.0 mi West 6.9 mph - N/A   Mostly Cloudy
3:15 PM 61.0 °F - 44.4 °F 54% 29.85 in 10.0 mi West 4.6 mph - N/A   Overcast
3:35 PM 61.7 °F - 43.9 °F 52% 29.85 in 10.0 mi West 9.2 mph - N/A   Mostly Cloudy
3:55 PM 60.6 °F - 43.5 °F 53% 29.86 in 10.0 mi West 4.6 mph - N/A   Overcast
4:15 PM 60.1 °F - 43.9 °F 55% 29.86 in 10.0 mi West 4.6 mph - N/A   Overcast
4:35 PM 59.9 °F - 44.6 °F 57% 29.87 in 10.0 mi Calm Calm - N/A   Overcast
4:55 PM 59.2 °F - 45.1 °F 60% 29.88 in 10.0 mi Calm Calm - N/A   Overcast
5:15 PM 59.0 °F - 44.6 °F 59% 29.88 in 10.0 mi West 4.6 mph - N/A   Overcast
5:35 PM 59.0 °F - 42.3 °F 54% 29.89 in 10.0 mi West 5.8 mph - N/A   Overcast
5:55 PM 57.0 °F - 41.9 °F 57% 29.91 in 10.0 mi WNW 3.5 mph - N/A   Scattered Clouds
6:15 PM 55.8 °F - 41.9 °F 60% 29.91 in 10.0 mi Calm Calm - N/A   Clear
6:35 PM 54.5 °F - 41.5 °F 62% 29.92 in 10.0 mi West 4.6 mph - N/A   Clear
6:55 PM 53.8 °F - 40.1 °F 60% 29.93 in 10.0 mi WNW 4.6 mph - N/A   Clear
7:15 PM 52.5 °F - 34.5 °F 50% 29.95 in 10.0 mi WNW 5.8 mph - N/A   Clear
7:35 PM 53.1 °F - 33.8 °F 48% 29.95 in 10.0 mi West 4.6 mph - N/A   Clear
7:55 PM 52.7 °F - 33.6 °F 48% 29.96 in 10.0 mi WNW 4.6 mph - N/A   Clear
8:15 PM 52.2 °F - 34.0 °F 50% 29.97 in 10.0 mi Calm Calm - N/A   Clear
8:35 PM 50.4 °F - 34.2 °F 54% 29.99 in 10.0 mi WNW 6.9 mph - N/A   Clear
8:55 PM 50.9 °F - 31.5 °F 47% 30.00 in 10.0 mi NW 12.7 mph 17.3 mph N/A   Clear
9:15 PM 49.8 °F - 29.7 °F 46% 30.02 in 10.0 mi NW 9.2 mph - N/A   Clear
9:35 PM 48.2 °F - 29.5 °F 48% 30.03 in 10.0 mi NNW 15.0 mph 18.4 mph N/A   Clear
9:55 PM 47.5 °F - 28.9 °F 49% 30.04 in 10.0 mi NNW 12.7 mph 19.6 mph N/A   Clear
10:15 PM 46.6 °F - 28.4 °F 49% 30.06 in 10.0 mi NNW 12.7 mph 19.6 mph N/A   Clear
10:35 PM 46.2 °F 41.2 °F 28.0 °F 49% 30.07 in 10.0 mi NNW 10.4 mph 20.7 mph N/A   Clear
10:55 PM 44.6 °F 40.2 °F 28.2 °F 53% 30.08 in 10.0 mi NW 8.1 mph - N/A   Clear
11:15 PM 43.7 °F 38.6 °F 28.0 °F 54% 30.09 in 10.0 mi NW 9.2 mph - N/A   Clear
11:35 PM 42.6 °F 39.0 °F 27.9 °F 56% 30.10 in 10.0 mi NW 5.8 mph - N/A   Clear
11:55 PM 42.4 °F 39.6 °F 27.7 °F 56% 30.11 in 10.0 mi NW 4.6 mph - N/A   Clear